"Sample Date","Sample Time","Sample Value","Units","Flow Rate","Laser Status","Micron Size 0","Counts/Channel 0","Micron Size 1","Counts/Channel 1","Micron Size 2","Counts/Channel 2","Micron Size 3","Counts/Channel 3","Micron Size 4","Counts/Channel 4","Micron Size 5","Counts/Channel 5","Micron Size 6","Counts/Channel 6","Micron Size 7","Counts/Channel 7","Micron Size 8","Counts/Channel 8","Micron Size 9","Counts/Channel 9","Micron Size 10","Counts/Channel 10","Micron Size 11","Counts/Channel 11","Micron Size 12","Counts/Channel 12","Micron Size 13","Counts/Channel 13","Micron Size 14","Counts/Channel 14","Micron Size 15","Counts/Channel 15","Micron Size 16","Counts/Channel 16","Micron Size 17","Counts/Channel 17","Micron Size 18","Counts/Channel 18","Micron Size 19","Counts/Channel 19","Micron Size 20","Counts/Channel 20","Micron Size 21","Counts/Channel 21","Micron Size 22","Counts/Channel 22","Micron Size 23","Counts/Channel 23","Micron Size 24","Counts/Channel 24","Micron Size 25","Counts/Channel 25","Micron Size 26","Counts/Channel 26","Micron Size 27","Counts/Channel 27","Micron Size 28","Counts/Channel 28","Micron Size 29","Counts/Channel 29","Micron Size 30","Counts/Channel 30","Micron Size 31","Counts/Channel 31"
"03/03/08","00:00:04",43194.000,"cc",28308.164,1,0.100,39978.000,0.200,1889.000,0.300,600.000,0.500,561.000,1.000,166.000,5.000,0
"03/03/08","00:00:10",43504.000,"cc",28311.895,1,0.100,40201.000,0.200,1964.000,0.300,584.000,0.500,589.000,1.000,166.000,5.000,0
"03/03/08","00:00:16",42909.000,"cc",28335.752,1,0.100,39788.000,0.200,1811.000,0.300,585.000,0.500,569.000,1.000,156.000,5.000,0
"03/03/08","00:00:22",42906.000,"cc",28298.121,1,0.100,39834.000,0.200,1757.000,0.300,567.000,0.500,560.000,1.000,188.000,5.000,0
"03/03/08","00:00:28",42946.000,"cc",28375.047,1,0.100,39813.000,0.200,1844.000,0.300,583.000,0.500,551.000,1.000,155.000,5.000,0
"03/03/08","00:00:34",43197.000,"cc",28265.191,1,0.100,39934.000,0.200,1895.000,0.300,594.000,0.500,578.000,1.000,196.000,5.000,0
"03/03/08","00:00:40",43214.000,"cc",28341.504,1,0.100,40041.000,0.200,1856.000,0.300,580.000,0.500,559.000,1.000,178.000,5.000,0
"03/03/08","00:00:46",42992.000,"cc",28345.283,1,0.100,39809.000,0.200,1864.000,0.300,598.000,0.500,539.000,1.000,182.000,5.000,0
"03/03/08","00:00:52",42801.000,"cc",28363.607,1,0.100,39735.000,0.200,1752.000,0.300,578.000,0.500,558.000,1.000,178.000,5.000,0
"03/03/08","00:00:58",43025.000,"cc",28289.525,1,0.100,39898.000,0.200,1857.000,0.300,552.000,0.500,549.000,1.000,169.000,5.000,0
"03/03/08","00:01:04",42964.000,"cc",28304.559,1,0.100,39762.000,0.200,1839.000,0.300,581.000,0.500,622.000,1.000,160.000,5.000,0
"03/03/08","00:01:10",42617.000,"cc",28330.199,1,0.100,39457.000,0.200,1851.000,0.300,540.000,0.500,578.000,1.000,191.000,5.000,0
"03/03/08","00:01:16",43098.000,"cc",28329.949,1,0.100,39853.000,0.200,1894.000,0.300,602.000,0.500,571.000,1.000,178.000,5.000,0
"03/03/08","00:01:22",42806.000,"cc",28311.404,1,0.100,39607.000,0.200,1870.000,0.300,570.000,0.500,587.000,1.000,172.000,5.000,0
"03/03/08","00:01:28",42949.000,"cc",28294.834,1,0.100,39764.000,0.200,1838.000,0.300,561.000,0.500,564.000,1.000,222.000,5.000,0
"03/03/08","00:01:34",42883.000,"cc",28255.359,1,0.100,39716.000,0.200,1812.000,0.300,600.000,0.500,562.000,1.000,193.000,5.000,0
"03/03/08","00:01:40",42762.000,"cc",28318.916,1,0.100,39542.000,0.200,1830.000,0.300,615.000,0.500,555.000,1.000,220.000,5.000,0
"03/03/08","00:01:46",43106.000,"cc",28317.406,1,0.100,39866.000,0.200,1923.000,0.300,589.000,0.500,555.000,1.000,173.000,5.000,0
"03/03/08","00:01:52",42843.000,"cc",28346.385,1,0.100,39697.000,0.200,1830.000,0.300,581.000,0.500,545.000,1.000,190.000,5.000,0
"03/03/08","00:01:58",43075.000,"cc",28317.107,1,0.100,39853.000,0.200,1840.000,0.300,621.000,0.500,534.000,1.000,227.000,5.000,0
"03/03/08","00:02:04",42749.000,"cc",28280.160,1,0.100,39555.000,0.200,1845.000,0.300,599.000,0.500,563.000,1.000,187.000,5.000,0
"03/03/08","00:02:10",43113.000,"cc",28367.188,1,0.100,39914.000,0.200,1787.000,0.300,606.000,0.500,591.000,1.000,215.000,5.000,0
"03/03/08","00:02:16",43107.000,"cc",28289.645,1,0.100,39952.000,0.200,1837.000,0.300,592.000,0.500,536.000,1.000,190.000,5.000,0
"03/03/08","00:02:22",42691.000,"cc",28316.498,1,0.100,39526.000,0.200,1804.000,0.300,566.000,0.500,586.000,1.000,209.000,5.000,0
"03/03/08","00:02:28",42642.000,"cc",28324.217,1,0.100,39467.000,0.200,1859.000,0.300,531.000,0.500,569.000,1.000,216.000,5.000,0
"03/03/08","00:02:34",43031.000,"cc",28306.123,1,0.100,39819.000,0.200,1830.000,0.300,557.000,0.500,606.000,1.000,219.000,5.000,0
"03/03/08","00:02:40",42529.000,"cc",28340.787,1,0.100,39408.000,0.200,1788.000,0.300,567.000,0.500,627.000,1.000,139.000,5.000,0
"03/03/08","00:02:46",42912.000,"cc",28315.311,1,0.100,39752.000,0.200,1811.000,0.300,586.000,0.500,576.000,1.000,187.000,5.000,0
"03/03/08","00:02:52",43034.000,"cc",28329.293,1,0.100,39970.000,0.200,1812.000,0.300,542.000,0.500,555.000,1.000,155.000,5.000,0
"03/03/08","00:02:58",43053.000,"cc",28325.293,1,0.100,39831.000,0.200,1862.000,0.300,568.000,0.500,600.000,1.000,192.000,5.000,0
"03/03/08","00:03:04",42838.000,"cc",28259.725,1,0.100,39697.000,0.200,1875.000,0.300,561.000,0.500,530.000,1.000,175.000,5.000,0
"03/03/08","00:03:10",42645.000,"cc",28315.678,1,0.100,39513.000,0.200,1761.000,0.300,617.000,0.500,561.000,1.000,193.000,5.000,0
"03/03/08","00:03:16",42661.000,"cc",28311.637,1,0.100,39477.000,0.200,1854.000,0.300,587.000,0.500,574.000,1.000,169.000,5.000,0
"03/03/08","00:03:22",42976.000,"cc",28346.244,1,0.100,39868.000,0.200,1783.000,0.300,595.000,0.500,536.000,1.000,194.000,5.000,0
"03/03/08","00:03:28",42894.000,"cc",28355.492,1,0.100,39807.000,0.200,1737.000,0.300,614.000,0.500,556.000,1.000,180.000,5.000,0
"03/03/08","00:03:34",42652.000,"cc",28295.652,1,0.100,39470.000,0.200,1837.000,0.300,586.000,0.500,597.000,1.000,162.000,5.000,0
"03/03/08","00:03:40",42778.000,"cc",28263.701,1,0.100,39678.000,0.200,1773.000,0.300,593.000,0.500,563.000,1.000,171.000,5.000,0
"03/03/08","00:03:46",42913.000,"cc",28301.502,1,0.100,39774.000,0.200,1811.000,0.300,576.000,0.500,562.000,1.000,190.000,5.000,0
"03/03/08","00:03:52",42606.000,"cc",28330.406,1,0.100,39514.000,0.200,1791.000,0.300,585.000,0.500,535.000,1.000,181.000,5.000,0
"03/03/08","00:03:58",42127.000,"cc",28263.578,1,0.100,39001.000,0.200,1794.000,0.300,588.000,0.500,547.000,1.000,197.000,5.000,0
"03/03/08","00:04:04",42533.000,"cc",28310.410,1,0.100,39498.000,0.200,1742.000,0.300,574.000,0.500,547.000,1.000,172.000,5.000,0
"03/03/08","00:04:10",42558.000,"cc",28383.023,1,0.100,39478.000,0.200,1761.000,0.300,576.000,0.500,570.000,1.000,173.000,5.000,0
"03/03/08","00:04:16",42562.000,"cc",28347.076,1,0.100,39459.000,0.200,1796.000,0.300,591.000,0.500,562.000,1.000,154.000,5.000,0
"03/03/08","00:04:22",42475.000,"cc",28319.926,1,0.100,39282.000,0.200,1792.000,0.300,618.000,0.500,585.000,1.000,198.000,5.000,0
"03/03/08","00:04:28",42457.000,"cc",28347.084,1,0.100,39362.000,0.200,1808.000,0.300,525.000,0.500,580.000,1.000,182.000,5.000,0
"03/03/08","00:04:34",42995.000,"cc",28348.330,1,0.100,39809.000,0.200,1839.000,0.300,574.000,0.500,602.000,1.000,171.000,5.000,0
"03/03/08","00:04:40",42974.000,"cc",28294.949,1,0.100,39737.000,0.200,1905.000,0.300,564.000,0.500,576.000,1.000,192.000,5.000,0
"03/03/08","00:04:46",42671.000,"cc",28317.904,1,0.100,39532.000,0.200,1795.000,0.300,570.000,0.500,573.000,1.000,201.000,5.000,0
"03/03/08","00:04:52",42662.000,"cc",28311.639,1,0.100,39473.000,0.200,1802.000,0.300,597.000,0.500,590.000,1.000,200.000,5.000,0
"03/03/08","00:04:58",42323.000,"cc",28289.471,1,0.100,39326.000,0.200,1688.000,0.300,569.000,0.500,558.000,1.000,182.000,5.000,0
"03/03/08","00:05:04",41676.000,"cc",28224.576,1,0.100,38659.000,0.200,1689.000,0.300,540.000,0.500,591.000,1.000,197.000,5.000,0
"03/03/08","00:05:10",42055.000,"cc",28360.258,1,0.100,38966.000,0.200,1755.000,0.300,571.000,0.500,582.000,1.000,181.000,5.000,0
"03/03/08","00:05:16",41597.000,"cc",28350.922,1,0.100,38496.000,0.200,1737.000,0.300,577.000,0.500,579.000,1.000,208.000,5.000,0
"03/03/08","00:05:22",41857.000,"cc",28328.982,1,0.100,38787.000,0.200,1759.000,0.300,575.000,0.500,552.000,1.000,184.000,5.000,0
"03/03/08","00:05:28",41796.000,"cc",28338.188,1,0.100,38723.000,0.200,1728.000,0.300,578.000,0.500,587.000,1.000,180.000,5.000,0
"03/03/08","00:05:34",41688.000,"cc",28341.160,1,0.100,38634.000,0.200,1694.000,0.300,578.000,0.500,603.000,1.000,179.000,5.000,0
"03/03/08","00:05:40",41399.000,"cc",28301.107,1,0.100,38341.000,0.200,1726.000,0.300,606.000,0.500,562.000,1.000,164.000,5.000,0
"03/03/08","00:05:46",41210.000,"cc",28306.412,1,0.100,38229.000,0.200,1669.000,0.300,572.000,0.500,559.000,1.000,181.000,5.000,0
"03/03/08","00:05:52",41823.000,"cc",28313.443,1,0.100,38817.000,0.200,1706.000,0.300,575.000,0.500,547.000,1.000,178.000,5.000,0
"03/03/08","00:05:58",41889.000,"cc",28322.283,1,0.100,38790.000,0.200,1752.000,0.300,570.000,0.500,590.000,1.000,187.000,5.000,0
"03/03/08","00:06:04",41708.000,"cc",28303.580,1,0.100,38724.000,0.200,1674.000,0.300,565.000,0.500,570.000,1.000,175.000,5.000,0
"03/03/08","00:06:10",41526.000,"cc",28302.262,1,0.100,38503.000,0.200,1662.000,0.300,599.000,0.500,586.000,1.000,176.000,5.000,0
"03/03/08","00:06:16",41509.000,"cc",28304.086,1,0.100,38491.000,0.200,1741.000,0.300,537.000,0.500,572.000,1.000,168.000,5.000,0
"03/03/08","00:06:22",41504.000,"cc",28302.545,1,0.100,38414.000,0.200,1753.000,0.300,561.000,0.500,574.000,1.000,202.000,5.000,0
"03/03/08","00:06:28",41198.000,"cc",28253.842,1,0.100,38269.000,0.200,1628.000,0.300,561.000,0.500,563.000,1.000,177.000,5.000,0
"03/03/08","00:06:34",41231.000,"cc",28337.371,1,0.100,38225.000,0.200,1661.000,0.300,575.000,0.500,585.000,1.000,185.000,5.000,0
"03/03/08","00:06:40",40632.000,"cc",28322.842,1,0.100,37631.000,0.200,1685.000,0.300,575.000,0.500,552.000,1.000,189.000,5.000,0
"03/03/08","00:06:46",41425.000,"cc",28285.311,1,0.100,38367.000,0.200,1677.000,0.300,559.000,0.500,625.000,1.000,197.000,5.000,0
"03/03/08","00:06:52",41289.000,"cc",28380.750,1,0.100,38337.000,0.200,1647.000,0.300,536.000,0.500,572.000,1.000,197.000,5.000,0
"03/03/08","00:06:58",41556.000,"cc",28360.369,1,0.100,38503.000,0.200,1674.000,0.300,586.000,0.500,595.000,1.000,198.000,5.000,0
"03/03/08","00:07:04",40918.000,"cc",28328.604,1,0.100,37986.000,0.200,1664.000,0.300,534.000,0.500,555.000,1.000,179.000,5.000,0
"03/03/08","00:07:10",41137.000,"cc",28291.758,1,0.100,38083.000,0.200,1721.000,0.300,556.000,0.500,594.000,1.000,183.000,5.000,0
"03/03/08","00:07:16",40934.000,"cc",28291.342,1,0.100,37826.000,0.200,1699.000,0.300,601.000,0.500,587.000,1.000,221.000,5.000,0
"03/03/08","00:07:22",41142.000,"cc",28321.805,1,0.100,38148.000,0.200,1603.000,0.300,576.000,0.500,620.000,1.000,195.000,5.000,0
"03/03/08","00:07:28",41310.000,"cc",28366.992,1,0.100,38278.000,0.200,1645.000,0.300,560.000,0.500,643.000,1.000,184.000,5.000,0
"03/03/08","00:07:34",40804.000,"cc",28288.559,1,0.100,37808.000,0.200,1648.000,0.300,586.000,0.500,565.000,1.000,197.000,5.000,0
"03/03/08","00:07:40",41036.000,"cc",28317.656,1,0.100,38118.000,0.200,1623.000,0.300,530.000,0.500,575.000,1.000,190.000,5.000,0
"03/03/08","00:07:46",40984.000,"cc",28360.965,1,0.100,38019.000,0.200,1668.000,0.300,555.000,0.500,561.000,1.000,181.000,5.000,0
"03/03/08","00:07:52",41179.000,"cc",28286.426,1,0.100,38182.000,0.200,1684.000,0.300,576.000,0.500,546.000,1.000,191.000,5.000,0
"03/03/08","00:07:58",40701.000,"cc",28362.076,1,0.100,37804.000,0.200,1613.000,0.300,547.000,0.500,561.000,1.000,176.000,5.000,0
"03/03/08","00:08:04",41296.000,"cc",28270.807,1,0.100,38368.000,0.200,1630.000,0.300,557.000,0.500,561.000,1.000,180.000,5.000,0
"03/03/08","00:08:10",41369.000,"cc",28274.789,1,0.100,38365.000,0.200,1665.000,0.300,581.000,0.500,571.000,1.000,187.000,5.000,0
"03/03/08","00:08:16",41099.000,"cc",28311.453,1,0.100,38101.000,0.200,1649.000,0.300,562.000,0.500,593.000,1.000,194.000,5.000,0
"03/03/08","00:08:22",41480.000,"cc",28315.492,1,0.100,38474.000,0.200,1679.000,0.300,571.000,0.500,565.000,1.000,191.000,5.000,0
"03/03/08","00:08:28",40886.000,"cc",28308.824,1,0.100,37900.000,0.200,1680.000,0.300,569.000,0.500,549.000,1.000,188.000,5.000,0
"03/03/08","00:08:34",41523.000,"cc",28280.027,1,0.100,38558.000,0.200,1635.000,0.300,557.000,0.500,592.000,1.000,181.000,5.000,0
"03/03/08","00:08:40",41556.000,"cc",28322.465,1,0.100,38552.000,0.200,1689.000,0.300,574.000,0.500,549.000,1.000,192.000,5.000,0
"03/03/08","00:08:46",41207.000,"cc",28290.850,1,0.100,38262.000,0.200,1650.000,0.300,559.000,0.500,546.000,1.000,190.000,5.000,0
"03/03/08","00:08:52",41349.000,"cc",28319.547,1,0.100,38293.000,0.200,1759.000,0.300,528.000,0.500,558.000,1.000,211.000,5.000,0
"03/03/08","00:08:58",41205.000,"cc",28392.035,1,0.100,38169.000,0.200,1726.000,0.300,580.000,0.500,538.000,1.000,192.000,5.000,0
"03/03/08","00:09:04",41151.000,"cc",28323.193,1,0.100,38214.000,0.200,1646.000,0.300,558.000,0.500,552.000,1.000,181.000,5.000,0
"03/03/08","00:09:10",40993.000,"cc",28308.775,1,0.100,37925.000,0.200,1676.000,0.300,576.000,0.500,616.000,1.000,200.000,5.000,0
"03/03/08","00:09:16",41051.000,"cc",28360.289,1,0.100,38049.000,0.200,1645.000,0.300,598.000,0.500,569.000,1.000,190.000,5.000,0
"03/03/08","00:09:22",41278.000,"cc",28332.193,1,0.100,38267.000,0.200,1639.000,0.300,549.000,0.500,618.000,1.000,205.000,5.000,0
"03/03/08","00:09:28",41689.000,"cc",28277.195,1,0.100,38725.000,0.200,1627.000,0.300,576.000,0.500,577.000,1.000,184.000,5.000,0
"03/03/08","00:09:34",41250.000,"cc",28267.598,1,0.100,38345.000,0.200,1558.000,0.300,536.000,0.500,607.000,1.000,204.000,5.000,0
"03/03/08","00:09:40",41029.000,"cc",28325.170,1,0.100,38084.000,0.200,1592.000,0.300,545.000,0.500,612.000,1.000,196.000,5.000,0
"03/03/08","00:09:46",41140.000,"cc",28275.492,1,0.100,38171.000,0.200,1623.000,0.300,568.000,0.500,594.000,1.000,184.000,5.000,0
"03/03/08","00:09:52",41597.000,"cc",28365.348,1,0.100,38615.000,0.200,1684.000,0.300,531.000,0.500,586.000,1.000,181.000,5.000,0
"03/03/08","00:09:58",41352.000,"cc",28341.326,1,0.100,38347.000,0.200,1591.000,0.300,601.000,0.500,640.000,1.000,173.000,5.000,0
"03/03/08","00:10:04",41313.000,"cc",28303.154,1,0.100,38313.000,0.200,1675.000,0.300,571.000,0.500,551.000,1.000,203.000,5.000,0
"03/03/08","00:10:10",41752.000,"cc",28373.629,1,0.100,38769.000,0.200,1631.000,0.300,580.000,0.500,565.000,1.000,207.000,5.000,0
"03/03/08","00:10:16",41640.000,"cc",28285.645,1,0.100,38532.000,0.200,1708.000,0.300,598.000,0.500,596.000,1.000,206.000,5.000,0
"03/03/08","00:10:22",41654.000,"cc",28303.481,1,0.100,38639.000,0.200,1718.000,0.300,540.000,0.500,575.000,1.000,182.000,5.000,0
"03/03/08","00:10:28",41854.000,"cc",28297.680,1,0.100,38938.000,0.200,1680.000,0.300,510.000,0.500,545.000,1.000,181.000,5.000,0
"03/03/08","00:10:34",41759.000,"cc",28299.537,1,0.100,38875.000,0.200,1655.000,0.300,538.000,0.500,515.000,1.000,176.000,5.000,0
"03/03/08","00:10:40",41680.000,"cc",28291.940,1,0.100,38621.000,0.200,1713.000,0.300,563.000,0.500,601.000,1.000,182.000,5.000,0
"03/03/08","00:10:46",41395.000,"cc",28322.621,1,0.100,38509.000,0.200,1626.000,0.300,562.000,0.500,538.000,1.000,160.000,5.000,0
"03/03/08","00:10:52",41610.000,"cc",28330.606,1,0.100,38618.000,0.200,1680.000,0.300,574.000,0.500,571.000,1.000,166.000,5.000,1.000
"03/03/08","00:10:58",41865.000,"cc",28382.129,1,0.100,38826.000,0.200,1711.000,0.300,573.000,0.500,583.000,1.000,172.000,5.000,0
"03/03/08","00:11:04",41582.000,"cc",28288.805,1,0.100,38623.000,0.200,1631.000,0.300,584.000,0.500,570.000,1.000,174.000,5.000,0
"03/03/08","00:11:10",41753.000,"cc",28325.258,1,0.100,38829.000,0.200,1707.000,0.300,544.000,0.500,489.000,1.000,184.000,5.000,0
"03/03/08","00:11:16",41853.000,"cc",28313.740,1,0.100,38852.000,0.200,1730.000,0.300,551.000,0.500,535.000,1.000,185.000,5.000,0
"03/03/08","00:11:22",41717.000,"cc",28315.918,1,0.100,38717.000,0.200,1689.000,0.300,582.000,0.500,522.000,1.000,207.000,5.000,0
"03/03/08","00:11:28",41725.000,"cc",28275.799,1,0.100,38730.000,0.200,1640.000,0.300,596.000,0.500,551.000,1.000,208.000,5.000,0
"03/03/08","00:11:34",41635.000,"cc",28354.789,1,0.100,38722.000,0.200,1647.000,0.300,558.000,0.500,530.000,1.000,178.000,5.000,0
"03/03/08","00:11:40",41199.000,"cc",28315.984,1,0.100,38262.000,0.200,1605.000,0.300,587.000,0.500,564.000,1.000,181.000,5.000,0
"03/03/08","00:11:46",41420.000,"cc",28339.102,1,0.100,38439.000,0.200,1620.000,0.300,557.000,0.500,603.000,1.000,201.000,5.000,0
"03/03/08","00:11:52",41701.000,"cc",28297.793,1,0.100,38602.000,0.200,1698.000,0.300,583.000,0.500,615.000,1.000,203.000,5.000,0
"03/03/08","00:11:58",41837.000,"cc",28284.863,1,0.100,38872.000,0.200,1624.000,0.300,547.000,0.500,594.000,1.000,200.000,5.000,0
"03/03/08","00:12:04",41433.000,"cc",28319.443,1,0.100,38465.000,0.200,1627.000,0.300,573.000,0.500,556.000,1.000,210.000,5.000,2.000
"03/03/08","00:12:10",41624.000,"cc",28363.422,1,0.100,38501.000,0.200,1760.000,0.300,580.000,0.500,596.000,1.000,187.000,5.000,0
"03/03/08","00:12:16",41655.000,"cc",28326.088,1,0.100,38595.000,0.200,1656.000,0.300,609.000,0.500,609.000,1.000,186.000,5.000,0
"03/03/08","00:12:22",41784.000,"cc",28307.494,1,0.100,38725.000,0.200,1729.000,0.300,576.000,0.500,559.000,1.000,195.000,5.000,0
"03/03/08","00:12:28",41556.000,"cc",28269.539,1,0.100,38625.000,0.200,1636.000,0.300,534.000,0.500,562.000,1.000,199.000,5.000,0
"03/03/08","00:12:34",41680.000,"cc",28284.350,1,0.100,38675.000,0.200,1681.000,0.300,607.000,0.500,526.000,1.000,191.000,5.000,0
"03/03/08","00:12:40",41990.000,"cc",28311.951,1,0.100,38878.000,0.200,1741.000,0.300,595.000,0.500,606.000,1.000,170.000,5.000,0
"03/03/08","00:12:46",41519.000,"cc",28327.643,1,0.100,38529.000,0.200,1650.000,0.300,575.000,0.500,625.000,1.000,140.000,5.000,0
"03/03/08","00:12:52",41252.000,"cc",28320.527,1,0.100,38369.000,0.200,1566.000,0.300,561.000,0.500,576.000,1.000,180.000,5.000,0
"03/03/08","00:12:58",41456.000,"cc",28301.898,1,0.100,38410.000,0.200,1686.000,0.300,569.000,0.500,607.000,1.000,184.000,5.000,0
"03/03/08","00:13:04",41555.000,"cc",28346.830,1,0.100,38566.000,0.200,1625.000,0.300,542.000,0.500,639.000,1.000,183.000,5.000,0
"03/03/08","00:13:10",41658.000,"cc",28373.465,1,0.100,38707.000,0.200,1613.000,0.300,572.000,0.500,593.000,1.000,173.000,5.000,0
"03/03/08","00:13:16",41310.000,"cc",28270.625,1,0.100,38286.000,0.200,1701.000,0.300,570.000,0.500,574.000,1.000,179.000,5.000,0
"03/03/08","00:13:22",41485.000,"cc",28339.154,1,0.100,38524.000,0.200,1641.000,0.300,565.000,0.500,555.000,1.000,200.000,5.000,0
"03/03/08","00:13:28",41725.000,"cc",28333.604,1,0.100,38794.000,0.200,1614.000,0.300,521.000,0.500,602.000,1.000,194.000,5.000,0
"03/03/08","00:13:34",41385.000,"cc",28286.725,1,0.100,38497.000,0.200,1607.000,0.300,566.000,0.500,547.000,1.000,168.000,5.000,0
"03/03/08","00:13:40",41191.000,"cc",28337.645,1,0.100,38242.000,0.200,1636.000,0.300,537.000,0.500,583.000,1.000,193.000,5.000,0
"03/03/08","00:13:46",41304.000,"cc",28268.453,1,0.100,38306.000,0.200,1626.000,0.300,579.000,0.500,625.000,1.000,168.000,5.000,0
"03/03/08","00:13:52",41665.000,"cc",28312.371,1,0.100,38798.000,0.200,1602.000,0.300,541.000,0.500,532.000,1.000,192.000,5.000,0
"03/03/08","00:13:58",41549.000,"cc",28358.018,1,0.100,38518.000,0.200,1663.000,0.300,605.000,0.500,596.000,1.000,167.000,5.000,0
"03/03/08","00:14:04",41731.000,"cc",28291.664,1,0.100,38826.000,0.200,1593.000,0.300,562.000,0.500,571.000,1.000,179.000,5.000,0
"03/03/08","00:14:10",41599.000,"cc",28297.510,1,0.100,38647.000,0.200,1630.000,0.300,591.000,0.500,534.000,1.000,197.000,5.000,0
"03/03/08","00:14:16",41640.000,"cc",28295.986,1,0.100,38654.000,0.200,1657.000,0.300,579.000,0.500,570.000,1.000,180.000,5.000,0
"03/03/08","00:14:22",41417.000,"cc",28350.928,1,0.100,38453.000,0.200,1677.000,0.300,551.000,0.500,573.000,1.000,163.000,5.000,0
"03/03/08","00:14:28",41351.000,"cc",28325.486,1,0.100,38418.000,0.200,1650.000,0.300,511.000,0.500,583.000,1.000,189.000,5.000,0
"03/03/08","00:14:34",41467.000,"cc",28301.531,1,0.100,38503.000,0.200,1604.000,0.300,593.000,0.500,556.000,1.000,211.000,5.000,0
"03/03/08","00:14:40",41416.000,"cc",28376.578,1,0.100,38443.000,0.200,1666.000,0.300,542.000,0.500,580.000,1.000,185.000,5.000,0
"03/03/08","00:14:46",41385.000,"cc",28344.385,1,0.100,38423.000,0.200,1663.000,0.300,519.000,0.500,593.000,1.000,187.000,5.000,0
"03/03/08","00:14:52",41522.000,"cc",28272.266,1,0.100,38535.000,0.200,1690.000,0.300,582.000,0.500,534.000,1.000,181.000,5.000,0
"03/03/08","00:14:58",41513.000,"cc",28306.178,1,0.100,38587.000,0.200,1602.000,0.300,578.000,0.500,571.000,1.000,174.000,5.000,1.000
"03/03/08","00:15:04",41771.000,"cc",28297.211,1,0.100,38752.000,0.200,1670.000,0.300,621.000,0.500,543.000,1.000,185.000,5.000,0
"03/03/08","00:15:10",41698.000,"cc",28330.926,1,0.100,38865.000,0.200,1559.000,0.300,540.000,0.500,559.000,1.000,175.000,5.000,0
"03/03/08","00:15:16",41636.000,"cc",28325.586,1,0.100,38670.000,0.200,1680.000,0.300,580.000,0.500,530.000,1.000,176.000,5.000,0
"03/03/08","00:15:22",41686.000,"cc",28363.463,1,0.100,38767.000,0.200,1622.000,0.300,551.000,0.500,582.000,1.000,164.000,5.000,0
"03/03/08","00:15:28",41213.000,"cc",28262.842,1,0.100,38262.000,0.200,1592.000,0.300,516.000,0.500,664.000,1.000,179.000,5.000,0
"03/03/08","00:15:34",41431.000,"cc",28333.711,1,0.100,38564.000,0.200,1544.000,0.300,564.000,0.500,568.000,1.000,191.000,5.000,0
"03/03/08","00:15:40",41507.000,"cc",28338.533,1,0.100,38514.000,0.200,1645.000,0.300,592.000,0.500,587.000,1.000,169.000,5.000,0
"03/03/08","00:15:46",41126.000,"cc",28329.166,1,0.100,38347.000,0.200,1554.000,0.300,543.000,0.500,508.000,1.000,174.000,5.000,0
"03/03/08","00:15:52",41554.000,"cc",28268.910,1,0.100,38717.000,0.200,1556.000,0.300,559.000,0.500,531.000,1.000,191.000,5.000,0
"03/03/08","00:15:58",41615.000,"cc",28323.604,1,0.100,38655.000,0.200,1641.000,0.300,571.000,0.500,569.000,1.000,179.000,5.000,0
"03/03/08","00:16:04",41779.000,"cc",28345.182,1,0.100,38858.000,0.200,1645.000,0.300,549.000,0.500,562.000,1.000,165.000,5.000,0
"03/03/08","00:16:10",41203.000,"cc",28262.260,1,0.100,38165.000,0.200,1710.000,0.300,562.000,0.500,559.000,1.000,207.000,5.000,0
"03/03/08","00:16:16",41489.000,"cc",28357.617,1,0.100,38576.000,0.200,1600.000,0.300,602.000,0.500,530.000,1.000,181.000,5.000,0
"03/03/08","00:16:22",41720.000,"cc",28275.440,1,0.100,38718.000,0.200,1662.000,0.300,561.000,0.500,598.000,1.000,181.000,5.000,0
"03/03/08","00:16:28",41514.000,"cc",28315.252,1,0.100,38554.000,0.200,1629.000,0.300,582.000,0.500,573.000,1.000,176.000,5.000,0
"03/03/08","00:16:34",41650.000,"cc",28384.223,1,0.100,38712.000,0.200,1640.000,0.300,551.000,0.500,576.000,1.000,171.000,5.000,0
"03/03/08","00:16:40",41414.000,"cc",28317.885,1,0.100,38476.000,0.200,1579.000,0.300,570.000,0.500,600.000,1.000,189.000,5.000,0
"03/03/08","00:16:46",41359.000,"cc",28278.756,1,0.100,38397.000,0.200,1667.000,0.300,551.000,0.500,556.000,1.000,188.000,5.000,0
"03/03/08","00:16:52",41494.000,"cc",28279.600,1,0.100,38708.000,0.200,1549.000,0.300,515.000,0.500,548.000,1.000,174.000,5.000,0
"03/03/08","00:16:58",41640.000,"cc",28318.236,1,0.100,38679.000,0.200,1664.000,0.300,570.000,0.500,547.000,1.000,180.000,5.000,0
"03/03/08","00:17:04",41606.000,"cc",28332.988,1,0.100,38696.000,0.200,1574.000,0.300,526.000,0.500,608.000,1.000,202.000,5.000,0
"03/03/08","00:17:10",41578.000,"cc",28344.949,1,0.100,38686.000,0.200,1605.000,0.300,577.000,0.500,554.000,1.000,156.000,5.000,0
"03/03/08","00:17:16",41908.000,"cc",28304.754,1,0.100,39085.000,0.200,1570.000,0.300,544.000,0.500,526.000,1.000,183.000,5.000,0